Location: Peebles
(55.6412°N, 3.1714°W)
Time: 13:08:44
(UTC+00:00)

RS-15 - Pass Details

Date: 06 December 2023
Orbit: 1893 x 2151 km, 64.8° (Epoch: 02 March)

Event Time Altitude Azimuth Distance (km) Brightness Sun altitude
Exits shadow 06:19:45 18° 303° (WNW) 3,789 8.9 -16.2°
Maximum altitude 06:26:55 36° 252° (WSW) 2,790 8.4 -15.2°
Drops below altitude 10° 06:36:24 10° 191° (S) 4,292 9.9 -13.9°
Sets 06:39:58 0° 183° (S) 5,272 10.5 -13.5°
